Home > Weather > Heraklion > Past weeks

Flag for Greece Past Weather in Heraklion, Crete, Greece — Yesterday and Last 2 Weeks

Now
75 °F

Clear.


Feels Like: 77 °F
Forecast: 76 / 82 °F
Wind: 14 mph from West

Location: Heraklion Airport

Current Time: Aug 27, 2016 at 6:15:59 AM

Latest Report: Aug 27, 2016 at 5:20 AM


Visibility: 10 mi

Pressure: 29.92 "Hg

Humidity: 74%

Dew Point: 66 °F

Location of HeraklionLocation

Past Weather in Heraklion — Graph

°F

Heraklion Temperature Yesterday

Maximum temperature yesterday: 82 °F (at 2:50 PM)
Minimum temperature yesterday: 72 °F (at 7:20 AM)
Average temperature yesterday: 78 °F

High & Low Weather Summary for the Past Weeks

 TemperatureHumidityPressure
High88 °F (Aug 12, 9:20 AM)94% (Aug 12, 8:50 PM)30.01 "Hg (Aug 12, 8:50 PM)
Low68 °F (Aug 17, 5:50 AM)12% (Aug 20, 1:50 PM)29.77 "Hg (Aug 18, 5:50 AM)
Average78 °F75%29.86 "Hg
* Reported Aug 12 4:20 AM — Aug 27 4:50 AM, Heraklion, Weather by CustomWeather, © 2016

Note: Actual official high and low records may vary slightly from our data, if they occured in-between our weather recording intervals... More about our weather records

Advertising

Heraklion Weather History for the Previous 24 Hours

Scroll right to see more
 ConditionsComfort  
Time TempWeatherWind HumidityBarometerVisibility
4:50 AM
Sat, Aug 27
75 °FClear.14 mph74%29.92 "Hg10 mi
4:20 AM73 °FClear.14 mph78%29.92 "Hg10 mi
3:50 AM73 °FClear.14 mph78%29.92 "Hg10 mi
3:20 AM73 °FClear.6 mph78%29.89 "Hg10 mi
2:50 AM73 °FClear.6 mph78%29.92 "Hg10 mi
2:20 AM75 °FPassing clouds.6 mph74%29.89 "HgN/A
1:50 AM75 °FPassing clouds.9 mph74%29.89 "HgN/A
1:20 AM75 °FPassing clouds.10 mph74%29.95 "HgN/A
12:50 AM75 °FPassing clouds.10 mph74%29.95 "HgN/A
12:20 AM77 °FPassing clouds.12 mph74%29.95 "HgN/A
11:50 PM
Fri, Aug 26
77 °FPassing clouds.12 mph74%29.95 "HgN/A
11:20 PM77 °FPassing clouds.15 mph74%29.98 "HgN/A
10:50 PM77 °FPassing clouds.15 mph74%29.98 "HgN/A
10:20 PM77 °FPassing clouds.16 mph79%29.95 "HgN/A
9:50 PM77 °FPassing clouds.16 mph79%29.95 "HgN/A
9:20 PM77 °FPassing clouds.14 mph79%29.95 "HgN/A
8:50 PM77 °FPassing clouds.14 mph79%29.95 "HgN/A
8:20 PM77 °FScattered clouds.14 mph79%29.92 "HgN/A
7:50 PM77 °FScattered clouds.15 mph79%29.92 "HgN/A
7:20 PM77 °FScattered clouds.15 mph79%29.92 "HgN/A
6:50 PM77 °FScattered clouds.15 mph79%29.92 "HgN/A
6:20 PM81 °FScattered clouds.16 mph70%29.92 "HgN/A
5:50 PM81 °FScattered clouds.16 mph70%29.92 "HgN/A
5:20 PM79 °FPartly sunny.13 mph74%29.92 "HgN/A
4:50 PM79 °FPartly sunny.15 mph74%29.92 "HgN/A
4:20 PM81 °FPartly sunny.16 mph70%29.92 "HgN/A
3:50 PM81 °FPartly sunny.16 mph70%29.92 "HgN/A
3:20 PM82 °FPartly sunny.16 mph66%29.92 "HgN/A
2:50 PM82 °FPartly sunny.17 mph66%29.92 "HgN/A
2:20 PM81 °FPartly sunny.16 mph70%29.89 "HgN/A
1:50 PM81 °FPartly sunny.16 mph70%29.89 "HgN/A
1:20 PM81 °FPartly sunny.15 mph74%29.89 "HgN/A
12:50 PM81 °FPartly sunny.14 mph74%29.89 "HgN/A
12:20 PM81 °FScattered clouds.12 mph74%29.89 "HgN/A
11:50 AM81 °FScattered clouds.13 mph74%29.89 "HgN/A
11:20 AM81 °FScattered clouds.13 mph74%29.89 "HgN/A
10:50 AM81 °FScattered clouds.13 mph74%29.89 "HgN/A
10:20 AM81 °FScattered clouds.12 mph74%29.89 "HgN/A
9:50 AM79 °FScattered clouds.14 mph79%29.89 "HgN/A
9:20 AM79 °FScattered clouds.16 mph79%29.86 "HgN/A
8:50 AM77 °FScattered clouds.9 mph83%29.86 "HgN/A
8:20 AM75 °FPassing clouds.5 mph83%29.86 "HgN/A
7:50 AM73 °FPassing clouds.5 mph83%29.86 "HgN/A
7:20 AM72 °FPassing clouds.6 mph88%29.83 "HgN/A
6:50 AM73 °FPassing clouds.6 mph83%29.83 "HgN/A
6:20 AM77 °FPassing clouds.6 mph83%29.83 "HgN/A
Weather by CustomWeather, © 2016

See weather overviewHow to use our weather pages